This demonstration page uses our WeatherBlox Daily Observations layout. Learn more.

38.88101, -77.10428

Hourly Observations for March 14, 2017

Temp ( °F °C ) Dew Point ( °F °C ) Humidity (%) Winds ( mph kmh ) Pressure ( in mb ) Visibility ( mi km ) Precip ( " mm )
12:44 am 00:44 Cloudy with Freezing Fog 30 -1 28 -2 93 93 NNE 14 22 30.06 1018 3 4.828032 0 0
12:52 am 00:52 Cloudy with Freezing Fog 31 -0.6 29 -1.7 92 92 NNE 14 22 30.03 1017 4 6.437376 0.09 2.286
1:00 am 01:00 Cloudy with Freezing Fog 30 -1 28 -2 93 93 NNE 17 28 30.06 1018 3 4.828032 0 0
1:11 am 01:11 Cloudy with Freezing Fog 31 -0.6 29 -1.7 92 92 NNE 16 26 30.03 1017 3 4.828032 0.05 1.27
1:15 am 01:15 Cloudy with Freezing Fog 31 -0.6 29 -1.7 92 92 NNE 18 30 30.03 1017 4 6.437376 0.05 1.27
1:40 am 01:40 Cloudy with Freezing Fog 31 -0.6 28 -2.2 89 89 NNE 20 31 30 1016 4 6.437376 0.12 3.048
1:47 am 01:47 Cloudy with Freezing Fog 30 -1 28 -2 93 93 NNE 18 30 30 1016 4 6.437376 0.15 3.81
1:52 am 01:52 Cloudy with Freezing Fog 31 -0.6 28 -2.2 89 89 NNE 20 31 29.97 1015 4 6.437376 0.15 3.81
1:59 am 01:59 Cloudy with Freezing Fog 31 -0.6 29 -1.7 92 92 NNE 17 28 30 1016 4 6.437376 0.02 0.508
2:07 am 02:07 Cloudy with Freezing Fog 31 -0.6 29 -1.7 92 92 N 15 24 29.97 1015 2.5 4.02336 0.03 0.762
2:14 am 02:14 Cloudy with Freezing Fog 31 -0.6 29 -1.7 92 92 N 17 28 29.97 1015 2 3.218688 0.06 1.524
2:19 am 02:19 Cloudy with Freezing Fog 32 0 30 -1.1 92 92 N 16 26 29.97 1015 3 4.828032 0.08 2.032
2:40 am 02:40 Cloudy with Freezing Fog 32 0 30 -1 93 93 NNE 18 30 29.94 1014 4 6.437376 0 0
2:52 am 02:52 Cloudy with Freezing Fog 32 0 31 -0.6 96 96 N 18 30 29.88 1012 5 8.04672 0.16 4.064
3:01 am 03:01 Cloudy with Freezing Fog 32 0 30 -1.1 92 92 NNE 21 33 29.91 1013 4 6.437376 0.02 0.508
3:12 am 03:12 Cloudy with Freezing Fog 32 0 30 -1.1 92 92 N 20 31 29.88 1012 4 6.437376 0.05 1.27
3:20 am 03:20 Cloudy with Mist and Fog 34 1 30 -1 87 87 N 17 28 29.88 1012 5 8.04672 0 0
3:52 am 03:52 Cloudy with Light Rain/Snow 33 0.6 31 -0.6 92 92 N 21 33 29.8 1009 4 6.437376 0.12 3.048
4:09 am 04:09 Cloudy with Mist and Fog 33 0.6 31 -0.6 92 92 NNE 23 37 29.8 1009 4 6.437376 0.06 1.524
4:52 am 04:52 Cloudy with Mist and Fog 33 0.6 31 -0.6 92 92 N 18 30 29.74 1007 4 6.437376 0.17 4.318
5:23 am 05:23 Cloudy with Light Rain/Snow 34 1.1 31 -0.6 89 89 N 15 24 29.74 1007 6 9.656064 0.08 2.032
5:52 am 05:52 Windy with Snow Likely 33 0.6 30 -1.1 89 89 N 22 35 29.68 1005 5 8.04672 0.11 2.794
6:04 am 06:04 Cloudy with Freezing Fog 32 0 30 -1 93 93 N 21 33 29.71 1006 5 8.04672 0 0
6:19 am 06:19 Cloudy with Freezing Fog 32 0 30 -1.1 92 92 N 23 37 29.68 1005 4 6.437376 0.02 0.508
6:25 am 06:25 Cloudy with Freezing Fog 32 0 29 -1.7 88 88 N 25 41 29.68 1005 4 6.437376 0.03 0.762
6:52 am 06:52 Cloudy with Mist and Fog 32 0 29 -1.7 88 88 NNW 24 39 29.62 1003 3 4.828032 0.1 2.54
7:52 am 07:52 Cloudy with Mist and Fog 31 -0.6 28 -2.2 89 89 NNW 25 41 29.59 1002 6 9.656064 0.05 1.27
8:52 am 08:52 Cloudy with Mist and Fog 33 0.6 30 -1.1 89 89 N 29 46 29.56 1001 2.5 4.02336 0.02 0.508
9:02 am 09:02 Cloudy with Mist and Fog 34 1.1 30 -1.1 85 85 N 30 48 29.59 1002 3 4.828032 0.01 0.254
9:22 am 09:22 Cloudy with Mist and Fog 34 1 30 -1 87 87 N 23 37 29.59 1002 10 16.09344 0 0
9:45 am 09:45 Cloudy with Light Rain 34 1.1 30 -1.1 85 85 N 24 39 29.56 1001 10 16.09344 0.03 0.762
9:52 am 09:52 Cloudy with Light Rain/Snow 34 1.1 30 -1.1 85 85 N 22 35 29.53 1000 10 16.09344 0.03 0.762
10:21 am 10:21 Cloudy 35 1.7 30 -1.1 82 82 NNW 22 35 29.53 1000 10 16.09344 0.001 0.001
10:39 am 10:39 Cloudy 35 1.7 29 -1.7 78 78 NNW 21 33 29.53 1000 10 16.09344 0.001 0.001
10:52 am 10:52 Cloudy 35 1.7 29 -1.7 78 78 NNW 20 31 32.45 1099 10 16.09344 0.001 0.001
11:52 am 11:52 Cloudy 37 2.8 31 -0.6 79 79 NNW 22 35 32.45 1099 10 16.09344 0 0
12:31 pm 12:31 Cloudy 37 2.8 31 -0.6 79 79 NNW 22 35 29.56 1001 10 16.09344 0 0
12:52 pm 12:52 Cloudy 38 3.3 30 -1.1 73 73 NW 18 30 29.53 1000 10 16.09344 0 0
1:08 pm 13:08 Cloudy 37 2.8 30 -1.1 76 76 NW 17 28 29.56 1001 10 16.09344 0 0
1:27 pm 13:27 Windy with Snow Likely 37 2.8 30 -1.1 76 76 NW 20 31 29.56 1001 3 4.828032 0.001 0.001
1:32 pm 13:32 Windy with Snow Likely 36 2 30 -1 81 81 NW 22 35 29.56 1001 2 3.218688 0 0
1:41 pm 13:41 Cloudy with Light Snow 36 2.2 30 -1.1 79 79 NW 16 26 29.56 1001 1.5 2.414016 0.001 0.001
1:52 pm 13:52 Windy with Snow Likely 36 2.2 30 -1.1 79 79 NW 20 31 29.53 1000 1.75 2.816352 0.001 0.001
1:55 pm 13:55 Windy with Snow Likely 36 2.2 30 -1.1 79 79 NW 21 33 29.56 1001 2.5 4.02336 0.001 0.001
1:59 pm 13:59 Mostly Cloudy with Scattered Snow Showers 36 2.2 30 -1.1 79 79 NW 16 26 29.56 1001 4 6.437376 0.001 0.001
2:05 pm 14:05 Mostly Cloudy 37 2.8 31 -0.6 79 79 NW 15 24 29.53 1000 10 16.09344 0.001 0.001
2:19 pm 14:19 Mostly Cloudy 39 4 30 -1 70 70 NW 24 39 29.56 1001 10 16.09344 0 0
2:46 pm 14:46 Cloudy 39 4 28 -2 65 65 NW 22 35 29.53 1000 10 16.09344 0 0
2:52 pm 14:52 Cloudy 39 3.9 29 -1.7 67 67 WNW 16 26 29.53 1000 10 16.09344 0.001 0.001
3:52 pm 15:52 Cloudy 39 3.9 26 -3.3 60 60 NW 22 35 29.56 1001 10 16.09344 0 0
4:52 pm 16:52 Cloudy 39 3.9 27 -2.8 62 62 WNW 24 39 29.59 1002 10 16.09344 0 0
5:52 pm 17:52 Mostly Cloudy 38 3.3 22 -5.6 52 52 WNW 29 46 29.62 1003 10 16.09344 0 0
6:52 pm 18:52 Mostly Cloudy 35 1.7 19 -7.2 52 52 NNW 23 37 29.68 1005 10 16.09344 0 0
7:52 pm 19:52 Mostly Cloudy 33 0.6 17 -8.3 52 52 WNW 24 39 29.71 1006 10 16.09344 0 0
8:52 pm 20:52 Mostly Cloudy 31 -0.6 15 -9.4 52 52 WNW 18 30 29.74 1007 10 16.09344 0 0
9:52 pm 21:52 Cloudy 30 -1.1 13 -10.6 49 49 WNW 28 44 29.8 1009 10 16.09344 0 0
10:52 pm 22:52 Mostly Cloudy 29 -1.7 11 -11.7 47 47 NW 21 33 29.83 1010 10 16.09344 0 0
11:52 pm 23:52 Partly Cloudy 27 -2.8 10 -12.2 49 49 NW 15 24 29.83 1010 10 16.09344 0 0

Powered by AerisWeather